Regional Weather Roundup
Issued by NWS Cleveland, OH

Home | Current Version | Previous Version | Graphics & Text | Print | Product List | Glossary On
Versions: 1 2 3 4 5 6 7 8 9 10 11 12 13 14 15 16 17 18 19 20 21 22 23 24 25 26 27 28 29 30 31 32 33 34 35 36 37 38 39 40 41 42 43 44 45 46 47 48 49 50
000
ASUS41 KCLE 252110
RWRCLE
OHIO REGIONAL WEATHER ROUNDUP
NATIONAL WEATHER SERVICE WILMINGTON, OH
400 PM EST TUE NOV 25 2014

NOTE: "FAIR" INDICATES FEW OR NO CLOUDS BELOW 12,000 FEET WITH NO
SIGNIFICANT WEATHER AND/OR OBSTRUCTIONS TO VISIBILITY.

OHZ001>008-015>018-024>027-034-035-043-044-252200-
   NORTHWEST OHIO

CITY           SKY/WX    TMP DP  RH WIND       PRES   REMARKS
DEFIANCE       NOT AVBL
FINDLAY        CLOUDY    32  24  72 W17       30.12R WCI  21
TOLEDO EXPRESS CLOUDY    31  20  63 W12       30.12R WCI  22
TOLEDO METCALF CLOUDY    32  21  64 W9        30.13R WCI  24
LIMA           CLOUDY    31  24  75 W12       30.12R WCI  22
$$

OHZ009>014-019>023-028>033-038-089-252200-
   NORTHEAST OHIO

CITY           SKY/WX    TMP DP  RH WIND       PRES   REMARKS
CLE-HOPKINS    CLOUDY    35  27  72 W16       30.12R WCI  25
CLE-LAKEFRONT  CLOUDY    36  28  73 W21       30.10R
CUY CO. ARPT   CLOUDY    37  27  65 W16G25    30.08R
LORAIN-ELYRIA  CLOUDY    33  27  78 W14       30.11R WCI  23
ASHTABULA      CLOUDY    35  25  66 SW16      30.08R WCI  25
AKRON-CANTON   CLOUDY    37  24  59 W10G21    30.08R
WOOSTER        CLOUDY    36  26  67 W12       30.09R
MANSFIELD      CLOUDY    33  27  78 W9G18     30.09R WCI  25
YOUNGSTOWN     CLOUDY    37  25  61 W15       30.07R
$$

OHZ042-051>053-060>062-070>072-077>081-252200-
  SOUTHWEST OHIO

CITY           SKY/WX    TMP DP  RH WIND       PRES   REMARKS
CINC-COVINGTON PTSUNNY   43  27  53 W5        30.10S
CINC-LUNKEN    MOSUNNY   44  28  53 W10       30.12S
HAMILTON       CLOUDY    41  29  62 VRB6      30.13S
DAYTON         CLOUDY    36  29  75 NW10      30.12S
WRIGHT-PAT AFB CLOUDY    37  29  71 W14       30.11S
DAYTON GENERAL CLOUDY    38  29  70 NW6       30.11R
WILMINGTON     MOSUNNY   41  26  55 NW10      30.09S
$$

OHZ036-037-039>041-045>050-054>059-063>069-073>076-082>088-252200-
  CENTRAL AND SOUTHEAST OHIO

CITY           SKY/WX    TMP DP  RH WIND       PRES   REMARKS
COLUMBUS       PTSUNNY   39  27  62 W9        30.10S
OSU AIRPORT    CLOUDY    38  27  64 W6        30.10S
BOLTON FIELD   CLOUDY    37  28  70 W8        30.11S
RICKENBACK AFB MOSUNNY   40  27  59 W12       30.11R
NEWARK         CLOUDY    40  26  57 W8        30.10R
MARION         CLOUDY    34  27  75 W13       30.11R WCI  25
LANCASTER      MOSUNNY   41  28  60 W8        30.11R
ZANESVILLE     CLEAR     40  27  59 W10       30.10R
NEW PHILLY     CLOUDY    40  27  59 W6        30.11R
$$



USA.gov is the U.S. government's official web portal to all federal, state and local government web resources and services.